Terminal Aerodrome Forecast
Issued by NWS Shreveport, LA

Home | Current Version | Previous Version | Text Only | Print | Product List | Glossary On
Versions: 1 2 3 4 5 6 7 8 9 10 11 12
576
FTUS44 KSHV 161720
TAFLFK
TAF
KLFK 161720Z 1618/1718 15006KT P6SM OVC080
     FM162100 12006KT P6SM VCSH BKN050
     FM170200 VRB06KT 2SM SHRA BR OVC010
     FM170800 12003KT 3SM BR VCSH OVC004
     FM170900 12003KT 2SM BR OVC003
     FM171500 13003KT 4SM BR OVC005=

USA.gov is the U.S. government's official web portal to all federal, state and local government web resources and services.